User: anonymous   Login
Location: Unspecified
(0.0000°N, 0.0000°E)
Time: 11:46:13
(UTC+02:00)
Language:

AO-7 - Orbit

View from above orbital plane
View from above orbital plane
View from above satellite
View from above satellite

Ground track
Ground track

The orbit data is extracted from the following two-line orbital elements,

1 07530U 74089B   15209.17987425 -.00000036  00000-0  51005-4 0  9998
2 07530 101.5240 183.5247 0011546 222.0262 205.3855 12.53615592862398
Epoch (UTC): 28 July 2015 04:19:01
Eccentricity: 0.0011546
inclination: 101.5240°
perigee height: 1440 km
apogee height: 1458 km
right ascension of ascending node: 183.5247°
argument of perigee: 222.0262°
revolutions per day: 12.53615592
mean anomaly at epoch: 205.3855°
orbit number at epoch: 86239

The dashed part of the orbit path shows where the satellite is in the earth's shadow,  

DLR